Time,TemperatureF,DewpointF,PressureIn,WindDirection,WindDirectionDegrees,WindSpeedMPH,WindSpeedGustMPH,Humidity,HourlyPrecipIn,Conditions,Clouds,dailyrainin,SoftwareType,DateUTC
2013-11-26 00:02:00,33.5,26.6,30.28,NNW,338,0.0,0.0,76,0.00,,,0.00,WUHU216HW,2013-11-26 07:02:00,
2013-11-26 00:07:00,33.5,27.0,30.28,NNW,338,0.0,0.0,77,0.00,,,0.00,WUHU216HW,2013-11-26 07:07:00,
2013-11-26 00:12:00,33.3,26.8,30.28,WNW,293,0.0,0.4,77,0.00,,,0.00,WUHU216HW,2013-11-26 07:12:00,
2013-11-26 00:17:00,33.3,26.8,30.28,WNW,293,0.4,0.4,77,0.00,,,0.00,WUHU216HW,2013-11-26 07:17:00,
2013-11-26 00:22:00,33.3,26.8,30.28,WNW,293,0.0,0.4,77,0.00,,,0.00,WUHU216HW,2013-11-26 07:22:00,
2013-11-26 00:27:00,33.3,26.8,30.28,WNW,293,0.0,0.7,77,0.00,,,0.00,WUHU216HW,2013-11-26 07:27:00,
2013-11-26 00:32:00,33.3,27.1,30.29,WNW,293,0.2,0.7,78,0.00,,,0.00,WUHU216HW,2013-11-26 07:32:00,
2013-11-26 00:37:00,33.1,26.6,30.29,WNW,293,0.0,0.2,77,0.00,,,0.00,WUHU216HW,2013-11-26 07:37:00,
2013-11-26 00:42:00,33.1,27.0,30.29,WSW,248,0.4,1.1,78,0.00,,,0.00,WUHU216HW,2013-11-26 07:42:00,
2013-11-26 00:47:00,33.1,27.0,30.29,West,270,0.7,1.1,78,0.00,,,0.00,WUHU216HW,2013-11-26 07:47:00,
2013-11-26 00:52:00,33.1,27.0,30.29,West,270,0.0,0.7,78,0.00,,,0.00,WUHU216HW,2013-11-26 07:52:00,
2013-11-26 00:57:00,33.1,27.0,30.29,West,270,0.0,0.4,78,0.00,,,0.00,WUHU216HW,2013-11-26 07:57:00,
2013-11-26 01:02:00,33.1,27.0,30.29,West,270,0.0,0.0,78,0.00,,,0.00,WUHU216HW,2013-11-26 08:02:00,
2013-11-26 01:07:00,33.1,27.0,30.29,West,270,0.4,0.4,78,0.00,,,0.00,WUHU216HW,2013-11-26 08:07:00,
2013-11-26 01:12:00,32.9,26.8,30.29,WNW,293,1.1,1.1,78,0.00,,,0.00,WUHU216HW,2013-11-26 08:12:00,
2013-11-26 01:17:00,32.9,26.8,30.29,West,270,1.8,1.8,78,0.00,,,0.00,WUHU216HW,2013-11-26 08:17:00,
2013-11-26 01:22:00,33.1,27.0,30.29,NNE,23,0.7,1.8,78,0.00,,,0.00,WUHU216HW,2013-11-26 08:22:00,
2013-11-26 01:27:00,33.3,27.1,30.29,NNE,23,0.2,0.9,78,0.00,,,0.00,WUHU216HW,2013-11-26 08:27:00,
2013-11-26 01:32:00,33.3,27.1,30.29,North,0,0.4,0.4,78,0.00,,,0.00,WUHU216HW,2013-11-26 08:32:00,
2013-11-26 01:37:00,33.3,27.1,30.29,North,0,0.2,1.1,78,0.00,,,0.00,WUHU216HW,2013-11-26 08:37:00,
2013-11-26 01:42:00,33.3,27.1,30.29,North,0,0.0,1.1,78,0.00,,,0.00,WUHU216HW,2013-11-26 08:42:00,
2013-11-26 01:47:00,33.3,27.1,30.29,North,0,0.9,0.9,78,0.00,,,0.00,WUHU216HW,2013-11-26 08:47:00,
2013-11-26 01:52:00,33.3,27.1,30.28,North,0,0.4,1.1,78,0.00,,,0.00,WUHU216HW,2013-11-26 08:52:00,
2013-11-26 01:57:00,33.5,27.3,30.28,North,0,0.0,1.1,78,0.00,,,0.00,WUHU216HW,2013-11-26 08:57:00,
2013-11-26 02:02:00,33.5,27.3,30.29,North,0,0.0,1.1,78,0.00,,,0.00,WUHU216HW,2013-11-26 09:02:00,
2013-11-26 02:07:00,33.5,27.3,30.29,North,0,0.0,0.2,78,0.00,,,0.00,WUHU216HW,2013-11-26 09:07:00,
2013-11-26 02:12:00,33.5,27.3,30.29,North,0,0.4,0.7,78,0.00,,,0.00,WUHU216HW,2013-11-26 09:12:00,
2013-11-26 02:17:00,33.5,27.3,30.29,NNW,338,0.0,0.7,78,0.00,,,0.00,WUHU216HW,2013-11-26 09:17:00,
2013-11-26 02:22:00,33.5,27.0,30.29,NNW,338,0.0,0.4,77,0.00,,,0.00,WUHU216HW,2013-11-26 09:22:00,
2013-11-26 02:27:00,33.5,27.0,30.29,SE,135,0.2,0.4,77,0.00,,,0.00,WUHU216HW,2013-11-26 09:27:00,
2013-11-26 02:32:00,33.3,26.8,30.29,SE,135,0.0,0.4,77,0.00,,,0.00,WUHU216HW,2013-11-26 09:32:00,
2013-11-26 02:37:00,33.3,26.8,30.29,ENE,68,0.0,0.2,77,0.00,,,0.00,WUHU216HW,2013-11-26 09:37:00,
2013-11-26 02:42:00,33.1,26.6,30.29,ENE,68,0.7,0.7,77,0.00,,,0.00,WUHU216HW,2013-11-26 09:42:00,
2013-11-26 02:47:00,33.1,26.6,30.29,ENE,68,0.0,0.7,77,0.00,,,0.00,WUHU216HW,2013-11-26 09:47:00,
2013-11-26 02:52:00,33.1,26.6,30.30,ENE,68,0.2,0.4,77,0.00,,,0.00,WUHU216HW,2013-11-26 09:52:00,
2013-11-26 02:57:00,32.9,26.5,30.30,ENE,68,0.0,0.2,77,0.00,,,0.00,WUHU216HW,2013-11-26 09:57:00,
2013-11-26 03:02:00,32.8,26.3,30.30,ENE,68,0.0,0.2,77,0.00,,,0.00,WUHU216HW,2013-11-26 10:02:00,
2013-11-26 03:07:00,32.6,26.2,30.30,ENE,68,0.4,0.4,77,0.00,,,0.00,WUHU216HW,2013-11-26 10:07:00,
2013-11-26 03:12:00,32.6,26.5,30.30,ENE,68,0.2,0.4,78,0.00,,,0.00,WUHU216HW,2013-11-26 10:12:00,
2013-11-26 03:17:00,32.4,26.3,30.30,ENE,68,0.0,0.4,78,0.00,,,0.00,WUHU216HW,2013-11-26 10:17:00,
2013-11-26 03:22:00,32.4,26.3,30.30,ENE,68,0.9,1.1,78,0.00,,,0.00,WUHU216HW,2013-11-26 10:22:00,
2013-11-26 03:27:00,32.4,26.3,30.30,ENE,68,0.0,1.1,78,0.00,,,0.00,WUHU216HW,2013-11-26 10:27:00,
2013-11-26 03:32:00,32.2,25.8,30.30,ENE,68,0.0,0.7,77,0.00,,,0.00,WUHU216HW,2013-11-26 10:32:00,
2013-11-26 03:37:00,32.0,25.7,30.30,ENE,68,0.0,0.0,77,0.00,,,0.00,WUHU216HW,2013-11-26 10:37:00,
2013-11-26 03:42:00,32.0,25.7,30.30,NNE,23,0.0,0.0,77,0.00,,,0.00,WUHU216HW,2013-11-26 10:42:00,
2013-11-26 03:47:00,32.0,26.0,30.30,NNE,23,0.0,0.0,78,0.00,,,0.00,WUHU216HW,2013-11-26 10:47:00,
2013-11-26 03:52:00,31.9,25.8,30.30,NNE,23,0.0,0.0,78,0.00,,,0.00,WUHU216HW,2013-11-26 10:52:00,
2013-11-26 03:57:00,31.9,25.8,30.30,NNE,23,0.0,0.0,78,0.00,,,0.00,WUHU216HW,2013-11-26 10:57:00,
2013-11-26 04:02:00,31.9,25.8,30.30,NNE,23,0.0,0.0,78,0.00,,,0.00,WUHU216HW,2013-11-26 11:02:00,
2013-11-26 04:07:00,31.9,25.8,30.30,NNE,23,0.0,0.0,78,0.00,,,0.00,WUHU216HW,2013-11-26 11:07:00,
2013-11-26 04:12:00,31.7,25.7,30.30,NNE,23,0.0,0.0,78,0.00,,,0.00,WUHU216HW,2013-11-26 11:12:00,
2013-11-26 04:17:00,31.7,25.7,30.30,NNE,23,0.0,0.0,78,0.00,,,0.00,WUHU216HW,2013-11-26 11:17:00,
2013-11-26 04:22:00,31.5,25.5,30.30,NNE,23,0.0,0.4,78,0.00,,,0.00,WUHU216HW,2013-11-26 11:22:00,
2013-11-26 04:27:00,31.5,25.5,30.30,NNE,23,0.0,0.4,78,0.00,,,0.00,WUHU216HW,2013-11-26 11:27:00,
2013-11-26 04:32:00,31.5,25.5,30.30,NNW,338,0.0,0.0,78,0.00,,,0.00,WUHU216HW,2013-11-26 11:32:00,
2013-11-26 04:37:00,31.5,25.5,30.30,NNW,338,0.0,0.0,78,0.00,,,0.00,WUHU216HW,2013-11-26 11:37:00,
2013-11-26 04:42:00,31.7,25.7,30.30,NNW,338,0.0,0.0,78,0.00,,,0.00,WUHU216HW,2013-11-26 11:42:00,
2013-11-26 04:47:00,31.7,25.7,30.30,NNW,338,0.0,0.0,78,0.00,,,0.00,WUHU216HW,2013-11-26 11:47:00,
2013-11-26 04:52:00,31.7,25.7,30.30,NNW,338,0.4,0.4,78,0.00,,,0.00,WUHU216HW,2013-11-26 11:52:00,
2013-11-26 04:57:00,31.7,25.7,30.30,NNW,338,0.2,0.4,78,0.00,,,0.00,WUHU216HW,2013-11-26 11:57:00,
2013-11-26 05:02:00,31.5,25.5,30.31,ENE,68,1.8,1.8,78,0.00,,,0.00,WUHU216HW,2013-11-26 12:02:00,
2013-11-26 05:07:00,31.7,25.3,30.31,ENE,68,0.9,1.8,77,0.00,,,0.00,WUHU216HW,2013-11-26 12:07:00,
2013-11-26 05:12:00,31.5,25.1,30.31,ENE,68,0.2,0.9,77,0.00,,,0.00,WUHU216HW,2013-11-26 12:12:00,
2013-11-26 05:17:00,31.5,25.1,30.32,ENE,68,0.7,0.9,77,0.00,,,0.00,WUHU216HW,2013-11-26 12:17:00,
2013-11-26 05:22:00,31.3,24.7,30.32,ENE,68,1.6,1.6,76,0.00,,,0.00,WUHU216HW,2013-11-26 12:22:00,
2013-11-26 05:27:00,31.0,24.3,30.32,ESE,113,0.7,1.6,76,0.00,,,0.00,WUHU216HW,2013-11-26 12:27:00,
2013-11-26 05:32:00,30.4,23.8,30.32,ESE,113,0.4,1.1,76,0.00,,,0.00,WUHU216HW,2013-11-26 12:32:00,
2013-11-26 05:37:00,30.1,23.4,30.32,ESE,113,0.2,1.1,76,0.00,,,0.00,WUHU216HW,2013-11-26 12:37:00,
2013-11-26 05:42:00,29.9,22.9,30.32,East,90,0.9,1.1,75,0.00,,,0.00,WUHU216HW,2013-11-26 12:42:00,
2013-11-26 05:47:00,29.7,23.1,30.32,ESE,113,0.2,0.9,76,0.00,,,0.00,WUHU216HW,2013-11-26 12:47:00,
2013-11-26 05:52:00,29.5,22.9,30.33,SW,225,0.4,1.1,76,0.00,,,0.00,WUHU216HW,2013-11-26 12:52:00,
2013-11-26 05:57:00,29.5,22.9,30.33,WSW,248,0.0,1.1,76,0.00,,,0.00,WUHU216HW,2013-11-26 12:57:00,
2013-11-26 06:02:00,29.5,23.1,30.33,WSW,248,0.0,0.9,77,0.00,,,0.00,WUHU216HW,2013-11-26 13:02:00,
2013-11-26 06:07:00,29.5,23.1,30.33,West,270,0.0,0.4,77,0.00,,,0.00,WUHU216HW,2013-11-26 13:07:00,
2013-11-26 06:12:00,29.5,23.1,30.34,West,270,0.0,0.4,77,0.00,,,0.00,WUHU216HW,2013-11-26 13:12:00,
2013-11-26 06:17:00,29.3,23.0,30.34,West,270,0.0,0.0,77,0.00,,,0.00,WUHU216HW,2013-11-26 13:17:00,
2013-11-26 06:22:00,29.3,23.0,30.33,West,270,0.0,0.0,77,0.00,,,0.00,WUHU216HW,2013-11-26 13:22:00,
2013-11-26 06:27:00,29.2,22.9,30.34,West,270,0.0,0.0,77,0.00,,,0.00,WUHU216HW,2013-11-26 13:27:00,
2013-11-26 06:32:00,29.2,22.9,30.34,West,270,0.0,0.0,77,0.00,,,0.00,WUHU216HW,2013-11-26 13:32:00,
2013-11-26 06:37:00,29.2,22.9,30.34,West,270,0.0,0.0,77,0.00,,,0.00,WUHU216HW,2013-11-26 13:37:00,
2013-11-26 06:42:00,29.2,22.9,30.34,West,270,0.0,0.0,77,0.00,,,0.00,WUHU216HW,2013-11-26 13:42:00,
2013-11-26 06:47:00,29.2,23.1,30.34,West,270,0.0,0.0,78,0.00,,,0.00,WUHU216HW,2013-11-26 13:47:00,
2013-11-26 06:52:00,29.0,23.0,30.34,West,270,0.0,0.0,78,0.00,,,0.00,WUHU216HW,2013-11-26 13:52:00,
2013-11-26 06:57:00,29.0,23.0,30.35,West,270,0.0,0.0,78,0.00,,,0.00,WUHU216HW,2013-11-26 13:57:00,
2013-11-26 07:02:00,29.0,23.0,30.35,WNW,293,0.0,0.2,78,0.00,,,0.00,WUHU216HW,2013-11-26 14:02:00,
2013-11-26 07:07:00,29.2,23.1,30.35,WNW,293,0.0,0.2,78,0.00,,,0.00,WUHU216HW,2013-11-26 14:07:00,
2013-11-26 07:12:00,29.3,23.7,30.35,WNW,293,0.0,0.0,79,0.00,,,0.00,WUHU216HW,2013-11-26 14:12:00,
2013-11-26 07:17:00,29.5,23.8,30.35,NW,315,0.0,0.0,79,0.00,,,0.00,WUHU216HW,2013-11-26 14:17:00,
2013-11-26 07:22:00,29.9,24.1,30.35,NW,315,0.2,0.2,79,0.00,,,0.00,WUHU216HW,2013-11-26 14:22:00,
2013-11-26 07:27:00,30.2,24.5,30.36,NNW,338,0.4,0.4,79,0.00,,,0.00,WUHU216HW,2013-11-26 14:27:00,
2013-11-26 07:32:00,30.6,24.8,30.36,NNW,338,0.4,0.9,79,0.00,,,0.00,WUHU216HW,2013-11-26 14:32:00,
2013-11-26 07:37:00,31.0,24.9,30.36,North,0,0.4,1.1,78,0.00,,,0.00,WUHU216HW,2013-11-26 14:37:00,
2013-11-26 07:42:00,31.3,25.3,30.36,NE,45,0.7,1.1,78,0.00,,,0.00,WUHU216HW,2013-11-26 14:42:00,
2013-11-26 07:47:00,31.5,25.5,30.36,NNE,23,0.7,0.9,78,0.00,,,0.00,WUHU216HW,2013-11-26 14:47:00,
2013-11-26 07:52:00,32.0,26.0,30.36,NNE,23,0.2,0.9,78,0.00,,,0.00,WUHU216HW,2013-11-26 14:52:00,
2013-11-26 07:57:00,32.2,26.2,30.36,North,0,0.0,0.9,78,0.00,,,0.00,WUHU216HW,2013-11-26 14:57:00,
2013-11-26 08:02:00,32.8,26.6,30.36,NNE,23,0.7,0.7,78,0.00,,,0.00,WUHU216HW,2013-11-26 15:02:00,
2013-11-26 08:07:00,33.5,27.0,30.37,ESE,113,0.4,0.7,77,0.00,,,0.00,WUHU216HW,2013-11-26 15:07:00,
2013-11-26 08:12:00,34.0,27.5,30.37,NE,45,0.4,1.6,77,0.00,,,0.00,WUHU216HW,2013-11-26 15:12:00,
2013-11-26 08:17:00,34.4,27.6,30.37,ENE,68,0.4,1.6,76,0.00,,,0.00,WUHU216HW,2013-11-26 15:17:00,
2013-11-26 08:22:00,34.9,28.1,30.37,North,0,1.6,1.6,76,0.00,,,0.00,WUHU216HW,2013-11-26 15:22:00,
2013-11-26 08:27:00,35.5,28.6,30.37,North,0,0.7,1.8,76,0.00,,,0.00,WUHU216HW,2013-11-26 15:27:00,
2013-11-26 08:32:00,36.0,28.8,30.37,North,0,0.7,1.8,75,0.00,,,0.00,WUHU216HW,2013-11-26 15:32:00,
2013-11-26 08:37:00,36.5,29.3,30.38,NNE,23,0.7,0.7,75,0.00,,,0.00,WUHU216HW,2013-11-26 15:37:00,
2013-11-26 08:42:00,37.1,29.9,30.38,NNE,23,0.2,1.3,75,0.00,,,0.00,WUHU216HW,2013-11-26 15:42:00,
2013-11-26 08:47:00,37.4,29.6,30.38,NNE,23,0.7,1.6,73,0.00,,,0.00,WUHU216HW,2013-11-26 15:47:00,
2013-11-26 08:52:00,38.0,29.4,30.38,ENE,68,0.7,1.6,71,0.00,,,0.00,WUHU216HW,2013-11-26 15:52:00,
2013-11-26 08:57:00,38.5,30.2,30.38,ESE,113,1.1,1.6,72,0.00,,,0.00,WUHU216HW,2013-11-26 15:57:00,
2013-11-26 09:02:00,39.2,30.6,30.38,NNE,23,0.7,1.8,71,0.00,,,0.00,WUHU216HW,2013-11-26 16:02:00,
2013-11-26 09:07:00,39.8,30.4,30.38,ENE,68,1.3,1.8,69,0.00,,,0.00,WUHU216HW,2013-11-26 16:07:00,
2013-11-26 09:12:00,40.3,30.6,30.39,ESE,113,2.2,2.2,68,0.00,,,0.00,WUHU216HW,2013-11-26 16:12:00,
2013-11-26 09:17:00,40.7,31.0,30.39,ESE,113,1.1,2.2,68,0.00,,,0.00,WUHU216HW,2013-11-26 16:17:00,
2013-11-26 09:22:00,41.2,31.1,30.39,SE,135,1.1,2.2,67,0.00,,,0.00,WUHU216HW,2013-11-26 16:22:00,
2013-11-26 09:27:00,41.8,31.2,30.39,ESE,113,1.8,2.9,66,0.00,,,0.00,WUHU216HW,2013-11-26 16:27:00,
2013-11-26 09:32:00,42.3,31.3,30.39,SSE,158,1.6,2.9,65,0.00,,,0.00,WUHU216HW,2013-11-26 16:32:00,
2013-11-26 09:37:00,42.7,31.7,30.39,SE,135,0.4,3.1,65,0.00,,,0.00,WUHU216HW,2013-11-26 16:37:00,
2013-11-26 09:42:00,43.4,32.4,30.39,SE,135,2.2,3.1,65,0.00,,,0.00,WUHU216HW,2013-11-26 16:42:00,
2013-11-26 09:47:00,44.1,32.0,30.39,SE,135,1.6,4.3,62,0.00,,,0.00,WUHU216HW,2013-11-26 16:47:00,
2013-11-26 09:52:00,44.6,32.9,30.39,SSW,203,1.1,4.3,63,0.00,,,0.00,WUHU216HW,2013-11-26 16:52:00,
2013-11-26 09:57:00,45.4,33.1,30.39,West,270,2.5,2.7,62,0.00,,,0.00,WUHU216HW,2013-11-26 16:57:00,
2013-11-26 10:02:00,45.7,31.3,30.39,ESE,113,1.3,2.7,57,0.00,,,0.00,WUHU216HW,2013-11-26 17:02:00,
2013-11-26 10:07:00,45.9,32.4,30.39,ESE,113,0.7,2.5,59,0.00,,,0.00,WUHU216HW,2013-11-26 17:07:00,
2013-11-26 10:12:00,46.3,33.1,30.39,West,270,0.4,1.6,60,0.00,,,0.00,WUHU216HW,2013-11-26 17:12:00,
2013-11-26 10:17:00,46.8,32.3,30.39,North,0,0.9,0.9,57,0.00,,,0.00,WUHU216HW,2013-11-26 17:17:00,
2013-11-26 10:22:00,47.5,33.0,30.39,SSW,203,1.1,1.1,57,0.00,,,0.00,WUHU216HW,2013-11-26 17:22:00,
2013-11-26 10:27:00,47.9,32.0,30.39,SW,225,0.4,1.1,54,0.00,,,0.00,WUHU216HW,2013-11-26 17:27:00,
2013-11-26 10:32:00,49.3,34.2,30.39,SSW,203,1.1,1.1,56,0.00,,,0.00,WUHU216HW,2013-11-26 17:32:00,
2013-11-26 10:37:00,50.2,33.3,30.38,NNW,338,1.8,2.5,52,0.00,,,0.00,WUHU216HW,2013-11-26 17:37:00,
2013-11-26 10:42:00,50.2,32.9,30.38,ESE,113,2.0,2.5,51,0.00,,,0.00,WUHU216HW,2013-11-26 17:42:00,
2013-11-26 10:47:00,50.0,31.7,30.38,North,0,2.2,2.2,49,0.00,,,0.00,WUHU216HW,2013-11-26 17:47:00,
2013-11-26 10:52:00,49.7,31.9,30.38,NW,315,1.1,2.7,50,0.00,,,0.00,WUHU216HW,2013-11-26 17:52:00,
2013-11-26 10:57:00,49.9,30.3,30.38,NNE,23,1.1,2.7,47,0.00,,,0.00,WUHU216HW,2013-11-26 17:57:00,
2013-11-26 11:02:00,50.0,28.9,30.38,ENE,68,2.7,2.7,44,0.00,,,0.00,WUHU216HW,2013-11-26 18:02:00,
2013-11-26 11:07:00,49.5,28.4,30.38,East,90,1.1,2.7,44,0.00,,,0.00,WUHU216HW,2013-11-26 18:07:00,
2013-11-26 11:12:00,49.5,30.1,30.38,North,0,1.1,2.2,47,0.00,,,0.00,WUHU216HW,2013-11-26 18:12:00,
2013-11-26 11:17:00,50.0,30.5,30.38,ENE,68,0.7,3.1,47,0.00,,,0.00,WUHU216HW,2013-11-26 18:17:00,
2013-11-26 11:22:00,50.8,31.8,30.38,NNE,23,1.6,3.1,48,0.00,,,0.00,WUHU216HW,2013-11-26 18:22:00,
2013-11-26 11:27:00,51.1,31.0,30.37,NNW,338,2.0,2.9,46,0.00,,,0.00,WUHU216HW,2013-11-26 18:27:00,
2013-11-26 11:32:00,51.5,29.6,30.37,ENE,68,2.5,2.9,43,0.00,,,0.00,WUHU216HW,2013-11-26 18:32:00,
2013-11-26 11:37:00,51.7,30.3,30.37,SSW,203,2.5,2.7,44,0.00,,,0.00,WUHU216HW,2013-11-26 18:37:00,
2013-11-26 11:42:00,52.4,28.7,30.36,ESE,113,0.9,2.5,40,0.00,,,0.00,WUHU216HW,2013-11-26 18:42:00,
2013-11-26 11:47:00,52.9,31.5,30.36,North,0,1.3,2.2,44,0.00,,,0.00,WUHU216HW,2013-11-26 18:47:00,
2013-11-26 11:52:00,53.5,32.5,30.36,WSW,248,2.5,2.5,45,0.00,,,0.00,WUHU216HW,2013-11-26 18:52:00,
2013-11-26 11:57:00,54.0,30.3,30.36,WNW,293,1.1,2.9,40,0.00,,,0.00,WUHU216HW,2013-11-26 18:57:00,
2013-11-26 12:02:00,54.0,31.9,30.36,NNW,338,1.3,3.4,43,0.00,,,0.00,WUHU216HW,2013-11-26 19:02:00,
2013-11-26 12:07:00,54.4,32.2,30.35,North,0,1.8,3.4,43,0.00,,,0.00,WUHU216HW,2013-11-26 19:07:00,
2013-11-26 12:12:00,54.4,31.1,30.35,WSW,248,1.1,4.0,41,0.00,,,0.00,WUHU216HW,2013-11-26 19:12:00,
2013-11-26 12:17:00,54.7,31.4,30.35,NW,315,0.9,4.0,41,0.00,,,0.00,WUHU216HW,2013-11-26 19:17:00,
2013-11-26 12:22:00,55.1,31.1,30.35,NW,315,2.7,2.7,40,0.00,,,0.00,WUHU216HW,2013-11-26 19:22:00,
2013-11-26 12:27:00,55.3,31.3,30.35,NNW,338,1.1,2.7,40,0.01,,,0.00,WUHU216HW,2013-11-26 19:27:00,
2013-11-26 12:32:00,55.4,31.5,30.35,NNE,23,0.9,2.5,40,0.01,,,0.02,WUHU216HW,2013-11-26 19:32:00,
2013-11-26 12:37:00,55.1,31.1,30.34,NNW,338,3.4,3.4,40,0.01,,,0.02,WUHU216HW,2013-11-26 19:37:00,
2013-11-26 12:42:00,55.1,31.1,30.34,North,0,0.9,3.4,40,0.01,,,0.02,WUHU216HW,2013-11-26 19:42:00,
2013-11-26 12:47:00,54.9,30.3,30.34,NNE,23,0.9,3.6,39,0.01,,,0.02,WUHU216HW,2013-11-26 19:47:00,
2013-11-26 12:52:00,54.4,29.2,30.34,North,0,2.7,4.5,38,0.01,,,0.02,WUHU216HW,2013-11-26 19:52:00,
2013-11-26 12:57:00,54.5,30.0,30.34,East,90,0.4,4.5,39,0.01,,,0.02,WUHU216HW,2013-11-26 19:57:00,
2013-11-26 13:02:00,54.4,29.2,30.34,ESE,113,1.6,2.7,38,0.01,,,0.02,WUHU216HW,2013-11-26 20:02:00,
2013-11-26 13:07:00,54.2,28.3,30.34,WSW,248,0.4,3.1,37,0.01,,,0.02,WUHU216HW,2013-11-26 20:07:00,
2013-11-26 13:12:00,54.7,27.4,30.33,East,90,1.8,3.4,35,0.01,,,0.02,WUHU216HW,2013-11-26 20:12:00,
2013-11-26 13:17:00,54.5,26.6,30.33,SW,225,2.5,5.6,34,0.01,,,0.02,WUHU216HW,2013-11-26 20:17:00,
2013-11-26 13:22:00,54.7,28.1,30.33,NW,315,0.7,5.6,36,0.01,,,0.02,WUHU216HW,2013-11-26 20:22:00,
2013-11-26 13:27:00,55.1,29.8,30.33,North,0,2.0,2.0,38,0.00,,,0.02,WUHU216HW,2013-11-26 20:27:00,
2013-11-26 13:32:00,55.4,30.1,30.33,NNW,338,0.7,2.0,38,0.00,,,0.02,WUHU216HW,2013-11-26 20:32:00,
2013-11-26 13:37:00,55.6,30.2,30.32,West,270,1.3,1.8,38,0.00,,,0.02,WUHU216HW,2013-11-26 20:37:00,
2013-11-26 13:42:00,55.8,27.6,30.32,SSE,158,0.4,2.5,34,0.00,,,0.02,WUHU216HW,2013-11-26 20:42:00,
2013-11-26 13:47:00,55.8,27.6,30.32,SSE,158,0.7,4.0,34,0.00,,,0.02,WUHU216HW,2013-11-26 20:47:00,
2013-11-26 13:52:00,55.4,27.3,30.32,SE,135,1.3,4.0,34,0.00,,,0.02,WUHU216HW,2013-11-26 20:52:00,
2013-11-26 13:57:00,55.1,27.0,30.32,NW,315,0.4,2.0,34,0.00,,,0.02,WUHU216HW,2013-11-26 20:57:00,
2013-11-26 14:02:00,54.9,28.9,30.32,East,90,0.4,1.1,37,0.00,,,0.02,WUHU216HW,2013-11-26 21:02:00,
2013-11-26 14:07:00,55.1,28.4,30.32,North,0,2.0,4.0,36,0.00,,,0.02,WUHU216HW,2013-11-26 21:07:00,
2013-11-26 14:12:00,55.4,29.4,30.32,North,0,2.5,4.0,37,0.00,,,0.02,WUHU216HW,2013-11-26 21:12:00,
2013-11-26 14:17:00,55.3,28.5,30.32,WNW,293,2.0,3.4,36,0.00,,,0.02,WUHU216HW,2013-11-26 21:17:00,
2013-11-26 14:22:00,55.8,29.0,30.31,WSW,248,1.8,3.4,36,0.00,,,0.02,WUHU216HW,2013-11-26 21:22:00,
2013-11-26 14:27:00,55.8,27.6,30.31,WSW,248,1.8,2.9,34,0.00,,,0.02,WUHU216HW,2013-11-26 21:27:00,
2013-11-26 14:32:00,55.6,27.5,30.31,SE,135,1.1,1.8,34,0.00,,,0.02,WUHU216HW,2013-11-26 21:32:00,
2013-11-26 14:37:00,55.1,26.3,30.31,ENE,68,1.6,2.9,33,0.00,,,0.02,WUHU216HW,2013-11-26 21:37:00,
2013-11-26 14:42:00,55.1,28.4,30.31,NNW,338,2.2,3.4,36,0.00,,,0.02,WUHU216HW,2013-11-26 21:42:00,
2013-11-26 14:47:00,55.3,27.2,30.31,ESE,113,1.6,3.4,34,0.00,,,0.02,WUHU216HW,2013-11-26 21:47:00,
2013-11-26 14:52:00,55.3,27.2,30.31,ESE,113,0.4,2.5,34,0.00,,,0.02,WUHU216HW,2013-11-26 21:52:00,
2013-11-26 14:57:00,54.7,26.0,30.31,East,90,1.8,3.4,33,0.00,,,0.02,WUHU216HW,2013-11-26 21:57:00,
2013-11-26 15:02:00,54.7,27.4,30.31,ENE,68,1.6,3.4,35,0.00,,,0.02,WUHU216HW,2013-11-26 22:02:00,
2013-11-26 15:07:00,54.5,27.9,30.31,North,0,0.4,2.5,36,0.00,,,0.02,WUHU216HW,2013-11-26 22:07:00,
2013-11-26 15:12:00,54.5,27.3,30.31,NE,45,0.9,2.5,35,0.00,,,0.02,WUHU216HW,2013-11-26 22:12:00,
2013-11-26 15:17:00,54.7,28.1,30.31,WSW,248,2.2,2.2,36,0.00,,,0.02,WUHU216HW,2013-11-26 22:17:00,
2013-11-26 15:22:00,55.1,28.4,30.31,West,270,1.1,2.5,36,0.00,,,0.02,WUHU216HW,2013-11-26 22:22:00,
2013-11-26 15:27:00,54.9,26.8,30.31,NE,45,0.0,2.5,34,0.00,,,0.02,WUHU216HW,2013-11-26 22:27:00,
2013-11-26 15:32:00,54.5,27.9,30.31,North,0,1.8,2.0,36,0.00,,,0.02,WUHU216HW,2013-11-26 22:32:00,
2013-11-26 15:37:00,54.5,27.9,30.31,NNE,23,1.1,2.7,36,0.00,,,0.02,WUHU216HW,2013-11-26 22:37:00,
2013-11-26 15:42:00,54.7,28.1,30.31,East,90,0.4,2.7,36,0.00,,,0.02,WUHU216HW,2013-11-26 22:42:00,
2013-11-26 15:47:00,54.7,26.6,30.31,SSW,203,1.1,1.1,34,0.00,,,0.02,WUHU216HW,2013-11-26 22:47:00,
2013-11-26 15:52:00,54.7,27.4,30.31,NW,315,0.4,1.1,35,0.00,,,0.02,WUHU216HW,2013-11-26 22:52:00,
2013-11-26 15:57:00,54.5,27.9,30.31,North,0,0.9,1.1,36,0.00,,,0.02,WUHU216HW,2013-11-26 22:57:00,
2013-11-26 16:02:00,54.4,27.7,30.31,NNW,338,0.7,2.2,36,0.00,,,0.02,WUHU216HW,2013-11-26 23:02:00,
2013-11-26 16:07:00,54.4,27.7,30.31,North,0,1.1,2.2,36,0.00,,,0.02,WUHU216HW,2013-11-26 23:07:00,
2013-11-26 16:12:00,54.0,27.5,30.31,NNE,23,0.9,1.8,36,0.00,,,0.02,WUHU216HW,2013-11-26 23:12:00,
2013-11-26 16:17:00,53.8,27.3,30.31,ENE,68,0.9,1.8,36,0.00,,,0.02,WUHU216HW,2013-11-26 23:17:00,
2013-11-26 16:22:00,53.6,25.7,30.31,ESE,113,2.7,2.7,34,0.00,,,0.02,WUHU216HW,2013-11-26 23:22:00,
2013-11-26 16:27:00,53.3,26.8,30.31,East,90,0.9,2.7,36,0.00,,,0.02,WUHU216HW,2013-11-26 23:27:00,
2013-11-26 16:32:00,52.9,26.5,30.31,NNE,23,1.1,1.8,36,0.00,,,0.02,WUHU216HW,2013-11-26 23:32:00,
2013-11-26 16:37:00,52.7,26.4,30.31,NNE,23,0.0,1.3,36,0.00,,,0.02,WUHU216HW,2013-11-26 23:37:00,
2013-11-26 16:42:00,52.6,26.8,30.31,NNW,338,0.0,1.1,37,0.00,,,0.02,WUHU216HW,2013-11-26 23:42:00,
2013-11-26 16:47:00,52.4,27.4,30.31,North,0,0.4,1.1,38,0.00,,,0.02,WUHU216HW,2013-11-26 23:47:00,
2013-11-26 16:53:00,52.0,27.1,30.31,NNW,338,0.7,0.9,38,0.00,,,0.02,WUHU216HW,2013-11-26 23:53:00,
2013-11-26 16:58:00,51.7,26.7,30.31,NNW,338,0.0,0.9,38,0.00,,,0.02,WUHU216HW,2013-11-26 23:58:00,
2013-11-26 17:03:00,51.3,27.1,30.31,NNW,338,0.0,0.2,39,0.00,,,0.02,WUHU216HW,2013-11-27 00:03:00,
2013-11-26 17:08:00,50.9,26.7,30.31,NNW,338,0.0,0.0,39,0.00,,,0.02,WUHU216HW,2013-11-27 00:08:00,
2013-11-26 17:13:00,50.4,26.3,30.31,NNW,338,0.0,0.0,39,0.00,,,0.02,WUHU216HW,2013-11-27 00:13:00,
2013-11-26 17:18:00,49.9,25.1,30.31,NNW,338,0.0,0.0,38,0.00,,,0.02,WUHU216HW,2013-11-27 00:18:00,
2013-11-26 17:23:00,49.5,25.5,30.31,NNW,338,0.0,0.0,39,0.00,,,0.02,WUHU216HW,2013-11-27 00:23:00,
2013-11-26 17:28:00,49.3,26.0,30.32,NNW,338,0.0,0.0,40,0.00,,,0.02,WUHU216HW,2013-11-27 00:28:00,
2013-11-26 17:33:00,49.1,25.8,30.32,NNW,338,0.0,0.0,40,0.00,,,0.02,WUHU216HW,2013-11-27 00:33:00,
2013-11-26 17:38:00,49.0,26.2,30.32,NNW,338,0.0,0.0,41,0.00,,,0.02,WUHU216HW,2013-11-27 00:38:00,
2013-11-26 17:43:00,48.6,26.5,30.32,NNW,338,0.0,0.4,42,0.00,,,0.02,WUHU216HW,2013-11-27 00:43:00,
2013-11-26 17:48:00,48.2,26.1,30.32,NNW,338,0.2,0.4,42,0.00,,,0.02,WUHU216HW,2013-11-27 00:48:00,
2013-11-26 17:53:00,47.9,25.7,30.32,NNW,338,0.0,0.2,42,0.00,,,0.02,WUHU216HW,2013-11-27 00:53:00,
2013-11-26 17:58:00,47.7,26.2,30.33,NNW,338,0.0,0.0,43,0.00,,,0.02,WUHU216HW,2013-11-27 00:58:00,
2013-11-26 18:03:00,47.5,26.0,30.33,NNW,338,0.0,0.0,43,0.00,,,0.02,WUHU216HW,2013-11-27 01:03:00,
2013-11-26 18:08:00,47.2,26.2,30.33,NNW,338,0.0,0.0,44,0.00,,,0.02,WUHU216HW,2013-11-27 01:08:00,
2013-11-26 18:13:00,47.0,26.6,30.33,NNW,338,0.0,0.0,45,0.00,,,0.02,WUHU216HW,2013-11-27 01:13:00,
2013-11-26 18:18:00,46.4,26.1,30.34,SE,135,1.1,1.1,45,0.00,,,0.02,WUHU216HW,2013-11-27 01:18:00,
2013-11-26 18:23:00,46.4,26.1,30.34,SE,135,0.2,1.1,45,0.00,,,0.02,WUHU216HW,2013-11-27 01:23:00,
2013-11-26 18:28:00,46.4,26.1,30.34,SSE,158,0.2,1.1,45,0.00,,,0.02,WUHU216HW,2013-11-27 01:28:00,
2013-11-26 18:33:00,46.3,25.4,30.34,ESE,113,0.9,1.8,44,0.00,,,0.02,WUHU216HW,2013-11-27 01:33:00,
2013-11-26 18:38:00,46.3,25.9,30.34,SE,135,0.0,1.8,45,0.00,,,0.02,WUHU216HW,2013-11-27 01:38:00,
2013-11-26 18:43:00,46.1,25.2,30.34,East,90,0.4,1.1,44,0.00,,,0.02,WUHU216HW,2013-11-27 01:43:00,
2013-11-26 18:48:00,46.1,25.7,30.34,ESE,113,0.9,0.9,45,0.00,,,0.02,WUHU216HW,2013-11-27 01:48:00,
2013-11-26 18:53:00,45.9,25.1,30.35,East,90,0.4,1.1,44,0.00,,,0.02,WUHU216HW,2013-11-27 01:53:00,
2013-11-26 18:58:00,45.7,25.5,30.35,ESE,113,0.2,1.1,45,0.00,,,0.02,WUHU216HW,2013-11-27 01:58:00,
2013-11-26 19:03:00,45.4,25.1,30.35,ESE,113,0.0,0.4,45,0.00,,,0.02,WUHU216HW,2013-11-27 02:03:00,
2013-11-26 19:08:00,45.2,24.9,30.35,SE,135,0.4,0.9,45,0.00,,,0.02,WUHU216HW,2013-11-27 02:08:00,
2013-11-26 19:13:00,45.0,25.4,30.35,SE,135,0.0,0.9,46,0.00,,,0.02,WUHU216HW,2013-11-27 02:13:00,
2013-11-26 19:18:00,44.8,25.2,30.35,East,90,0.4,0.9,46,0.00,,,0.02,WUHU216HW,2013-11-27 02:18:00,
2013-11-26 19:23:00,44.6,25.0,30.35,ESE,113,0.0,0.7,46,0.00,,,0.02,WUHU216HW,2013-11-27 02:23:00,
2013-11-26 19:28:00,44.3,24.7,30.35,ESE,113,0.0,0.4,46,0.00,,,0.02,WUHU216HW,2013-11-27 02:28:00,
2013-11-26 19:33:00,43.9,24.4,30.35,North,0,0.4,0.4,46,0.00,,,0.02,WUHU216HW,2013-11-27 02:33:00,
2013-11-26 19:38:00,43.6,24.6,30.35,North,0,0.4,0.7,47,0.00,,,0.02,WUHU216HW,2013-11-27 02:38:00,
2013-11-26 19:43:00,43.2,24.9,30.36,NNW,338,0.0,0.7,48,0.00,,,0.02,WUHU216HW,2013-11-27 02:43:00,
2013-11-26 19:48:00,43.0,24.7,30.36,NNW,338,0.0,0.7,48,0.00,,,0.02,WUHU216HW,2013-11-27 02:48:00,
2013-11-26 19:53:00,42.7,24.3,30.36,NNE,23,0.0,0.9,48,0.00,,,0.02,WUHU216HW,2013-11-27 02:53:00,
2013-11-26 19:58:00,42.5,24.7,30.36,ENE,68,0.0,0.9,49,0.00,,,0.02,WUHU216HW,2013-11-27 02:58:00,
2013-11-26 20:03:00,42.3,24.5,30.36,NNW,338,0.4,0.4,49,0.00,,,0.02,WUHU216HW,2013-11-27 03:03:00,
2013-11-26 20:08:00,42.1,24.3,30.36,West,270,1.3,1.3,49,0.00,,,0.02,WUHU216HW,2013-11-27 03:08:00,
2013-11-26 20:13:00,42.1,24.3,30.36,West,270,0.0,1.3,49,0.00,,,0.02,WUHU216HW,2013-11-27 03:13:00,
2013-11-26 20:18:00,41.8,23.9,30.36,West,270,0.0,1.1,49,0.00,,,0.02,WUHU216HW,2013-11-27 03:18:00,
2013-11-26 20:23:00,41.6,23.8,30.36,NNW,338,0.4,1.1,49,0.00,,,0.02,WUHU216HW,2013-11-27 03:23:00,
2013-11-26 20:28:00,41.4,24.1,30.36,SSW,203,0.4,0.9,50,0.00,,,0.02,WUHU216HW,2013-11-27 03:28:00,
2013-11-26 20:33:00,41.4,24.1,30.36,SSW,203,0.0,0.9,50,0.00,,,0.02,WUHU216HW,2013-11-27 03:33:00,
2013-11-26 20:38:00,41.2,23.9,30.36,SW,225,0.4,1.1,50,0.00,,,0.02,WUHU216HW,2013-11-27 03:38:00,
2013-11-26 20:43:00,41.0,23.8,30.36,West,270,0.0,1.1,50,0.00,,,0.02,WUHU216HW,2013-11-27 03:43:00,
2013-11-26 20:48:00,41.0,23.8,30.36,West,270,0.4,1.1,50,0.00,,,0.02,WUHU216HW,2013-11-27 03:48:00,
2013-11-26 20:53:00,41.0,23.8,30.36,SE,135,0.0,0.4,50,0.00,,,0.02,WUHU216HW,2013-11-27 03:53:00,
2013-11-26 20:58:00,41.0,23.8,30.37,SE,135,0.0,0.4,50,0.00,,,0.02,WUHU216HW,2013-11-27 03:58:00,
2013-11-26 21:03:00,40.9,24.0,30.37,SW,225,0.9,1.1,51,0.00,,,0.02,WUHU216HW,2013-11-27 04:03:00,
2013-11-26 21:08:00,40.9,24.0,30.36,WSW,248,0.9,1.6,51,0.00,,,0.02,WUHU216HW,2013-11-27 04:08:00,
2013-11-26 21:13:00,40.9,24.0,30.36,WSW,248,0.0,1.6,51,0.00,,,0.02,WUHU216HW,2013-11-27 04:13:00,
2013-11-26 21:18:00,40.7,23.9,30.36,SSW,203,0.4,1.3,51,0.00,,,0.02,WUHU216HW,2013-11-27 04:18:00,
2013-11-26 21:23:00,40.7,23.9,30.37,SSW,203,0.0,0.9,51,0.00,,,0.02,WUHU216HW,2013-11-27 04:23:00,
2013-11-26 21:28:00,40.5,23.8,30.37,SSW,203,0.0,0.4,51,0.00,,,0.02,WUHU216HW,2013-11-27 04:28:00,
2013-11-26 21:33:00,40.1,23.4,30.37,SSW,203,0.0,0.4,51,0.00,,,0.02,WUHU216HW,2013-11-27 04:33:00,
2013-11-26 21:38:00,40.0,23.7,30.37,SSW,203,0.0,0.0,52,0.00,,,0.02,WUHU216HW,2013-11-27 04:38:00,
2013-11-26 21:43:00,39.6,23.3,30.37,SSW,203,0.0,0.0,52,0.00,,,0.02,WUHU216HW,2013-11-27 04:43:00,
2013-11-26 21:48:00,39.4,23.1,30.37,WSW,248,0.4,1.1,52,0.00,,,0.02,WUHU216HW,2013-11-27 04:48:00,
2013-11-26 21:53:00,39.2,23.4,30.38,WSW,248,0.0,1.1,53,0.00,,,0.02,WUHU216HW,2013-11-27 04:53:00,
2013-11-26 21:58:00,39.1,23.7,30.38,SSE,158,1.6,1.8,54,0.00,,,0.02,WUHU216HW,2013-11-27 04:58:00,
2013-11-26 22:01:00,39.1,23.7,30.38,SE,135,1.1,1.8,54,0.00,,,0.02,WUHU216HW,2013-11-27 05:01:00,
2013-11-26 22:06:00,39.4,23.6,30.38,SE,135,0.0,1.6,53,0.00,,,0.02,WUHU216HW,2013-11-27 05:06:00,
2013-11-26 22:11:00,39.2,23.4,30.38,SSE,158,0.4,1.1,53,0.00,,,0.02,WUHU216HW,2013-11-27 05:11:00,
2013-11-26 22:16:00,39.2,23.9,30.37,SSE,158,0.0,1.1,54,0.00,,,0.02,WUHU216HW,2013-11-27 05:16:00,
2013-11-26 22:21:00,39.1,23.7,30.37,SSE,158,0.0,0.4,54,0.00,,,0.02,WUHU216HW,2013-11-27 05:21:00,
2013-11-26 22:26:00,38.9,23.6,30.38,SSE,158,0.0,0.0,54,0.00,,,0.02,WUHU216HW,2013-11-27 05:26:00,
2013-11-26 22:31:00,38.7,23.4,30.38,SSE,158,0.4,0.4,54,0.00,,,0.02,WUHU216HW,2013-11-27 05:31:00,
2013-11-26 22:36:00,38.5,23.2,30.38,SSW,203,0.2,1.1,54,0.00,,,0.02,WUHU216HW,2013-11-27 05:36:00,
2013-11-26 22:41:00,38.3,23.5,30.38,SSW,203,0.0,1.1,55,0.00,,,0.02,WUHU216HW,2013-11-27 05:41:00,
2013-11-26 22:46:00,38.2,23.3,30.37,SSW,203,0.0,0.4,55,0.00,,,0.02,WUHU216HW,2013-11-27 05:46:00,
2013-11-26 22:51:00,38.0,23.1,30.38,SSW,203,0.0,0.4,55,0.00,,,0.02,WUHU216HW,2013-11-27 05:51:00,
2013-11-26 22:56:00,37.8,23.1,30.38,SSW,203,0.0,0.4,55,0.00,,,0.02,WUHU216HW,2013-11-27 05:56:00,
2013-11-26 23:01:00,37.8,23.4,30.38,SSW,203,0.0,0.0,56,0.00,,,0.02,WUHU216HW,2013-11-27 06:01:00,
2013-11-26 23:06:00,37.8,23.4,30.38,SSW,203,0.7,1.1,56,0.00,,,0.02,WUHU216HW,2013-11-27 06:06:00,
2013-11-26 23:11:00,37.6,23.3,30.38,South,180,0.0,1.1,56,0.00,,,0.02,WUHU216HW,2013-11-27 06:11:00,
2013-11-26 23:16:00,37.4,23.1,30.38,WSW,248,0.4,1.3,56,0.00,,,0.02,WUHU216HW,2013-11-27 06:16:00,
2013-11-26 23:21:00,37.4,23.6,30.38,WSW,248,0.0,1.3,57,0.00,,,0.02,WUHU216HW,2013-11-27 06:21:00,
2013-11-26 23:26:00,37.4,23.6,30.38,WSW,248,0.0,0.9,57,0.00,,,0.02,WUHU216HW,2013-11-27 06:26:00,
2013-11-26 23:31:00,37.4,23.6,30.38,SW,225,0.7,0.9,57,0.00,,,0.02,WUHU216HW,2013-11-27 06:31:00,
2013-11-26 23:36:00,37.4,23.6,30.38,SW,225,0.4,1.1,57,0.00,,,0.02,WUHU216HW,2013-11-27 06:36:00,
2013-11-26 23:41:00,37.4,23.6,30.38,WSW,248,1.3,1.3,57,0.00,,,0.02,WUHU216HW,2013-11-27 06:41:00,
2013-11-26 23:46:00,37.4,23.6,30.38,WSW,248,1.6,1.6,57,0.00,,,0.02,WUHU216HW,2013-11-27 06:46:00,
2013-11-26 23:51:00,37.4,23.9,30.38,SSW,203,0.9,1.6,58,0.00,,,0.02,WUHU216HW,2013-11-27 06:51:00,
2013-11-26 23:56:00,37.6,24.1,30.37,WSW,248,0.2,1.1,58,0.00,,,0.02,WUHU216HW,2013-11-27 06:56:00,